Temp
-14 -14 -14 -14 -14 -14 -14 -14 -14 -14 -14 -14 -14 -14 -14 -14 -14 -14 -14 -14 -14 -14 -14 -14 -14 -14 -14 -14 -14 -14 -14 -14 -14 -14 -14 -14 -13 -14 -14 -15 -14 -14
-14 -14 -14 -14 -14 -14 -14 -14 -14 -14 -14 -14 -14 -14 -14 -14 -14 -14 -14 -14 -14 -14 -14 -14 -14 -14 -14 -14 -14 -14 -14 -14 -14 -14 -14 -14 -14 -14 -14 -14 -14 -14
-14 -14 -14 -14 -14 -14 -14 -14 -14 -14 -14 -14 -14 -14 -14 -14 -14 -14 -14 -14 -14 -14 -14 -14 -14 -14 -14 -14 -14 -14 -14 -14 -14 -14 -14 -14 -14 -14 -14 -14 -14 -14
-14 -14 -14 -14 -14 -14 -14 -14 -14 -14 -14 -14 -14 -14 -14 -14 -14 -14 -14 -14 -14 -14 -14 -14 -14 -14 -14 -14 -14 -14 -14 -14 -14 -14 -14 -14 -14 -14 -14 -14 -14 -14
-14 -14 -14 -14 -14 -14 -14 -14 -14 -14 -14 -14 -14 -14 -14 -14 -14 -14 -14 -14 -14 -14 -14 -14 -14 -14 -14 -14 -14 -14 -14 -14 -14 -14 -14 -14 -14 -14 -14 -14 -14 -14
-15 -14 -14 -15 -15 -15 -15 -15 -15 -15 -15 -15 -14 -14 -14 -14 -14 -14 -14 -14 -14 -14 -14 -14 -14 -14 -14 -14 -14 -14 -14 -14 -14 -14 -14 -14 -14 -14 -14 -14 -15 -15
-15 -15 -15 -15 -15 -15 -15 -15 -15 -15 -15 -15 -15 -15 -15 -15 -15 -15 -15 -15 -15 -14 -14 -14 -14 -14 -14 -14 -14 -14 -14 -14 -14 -14 -14 -14 -14 -14 -14 -15 -15 -15
-15 -15 -15 -15 -15 -15 -15 -15 -15 -15 -15 -15 -15 -15 -15 -15 -15 -15 -15 -15 -15 -15 -15 -14 -14 -14 -14 -14 -14 -14 -14 -14 -14 -14 -14 -14 -14 -14 -14 -14 -14 -15
-15 -15 -15 -15 -15 -15 -15 -15 -15 -15 -15 -15 -15 -15 -15 -15 -15 -15 -15 -15 -15 -15 -15 -15 -15 -14 -14 -14 -14 -14 -14 -14 -14 -14 -14 -14 -14 -14 -14 -14 -14 -15
-15 -15 -15 -15 -15 -15 -15 -15 -15 -15 -15 -15 -15 -15 -15 -15 -15 -15 -15 -15 -15 -15 -15 -15 -15 -15 -15 -14 -14 -14 -14 -14 -14 -14 -14 -14 -14 -14 -14 -14 -14 -15
-15 -15 -15 -15 -15 -15 -15 -15 -16 -15 -15 -15 -15 -15 -15 -15 -15 -15 -15 -15 -15 -15 -15 -15 -15 -15 -15 -15 -15 -15 -14 -14 -14 -14 -14 -14 -14 -14 -15 -15 -15 -15
-15 -15 -15 -15 -15 -15 -15 -16 -16 -16 -16 -15 -15 -15 -15 -15 -15 -15 -15 -15 -15 -15 -15 -15 -15 -15 -15 -15 -15 -15 -15 -15 -15 -15 -15 -15 -15 -15 -15 -15 -15 -15
-15 -15 -15 -15 -15 -15 -15 -16 -16 -16 -16 -16 -15 -15 -15 -15 -15 -15 -15 -15 -15 -15 -15 -15 -15 -15 -15 -15 -15 -15 -15 -15 -15 -15 -15 -15 -15 -15 -15 -15 -15 -15
-15 -15 -15 -16 -16 -15 -16 -16 -16 -16 -16 -16 -16 -15 -15 -15 -15 -15 -15 -15 -15 -15 -15 -15 -15 -15 -15 -15 -15 -15 -15 -15 -15 -15 -15 -15 -15 -15 -15 -15 -15 -15
-15 -15 -15 -16 -16 -16 -16 -16 -16 -16 -16 -16 -16 -16 -16 -16 -15 -15 -15 -15 -15 -15 -15 -15 -15 -15 -15 -15 -15 -15 -15 -15 -15 -15 -15 -15 -15 -15 -15 -15 -15 -15
-15 -15 -15 -16 -16 -16 -16 -16 -16 -16 -16 -16 -16 -16 -16 -16 -16 -16 -16 -16 -16 -15 -15 -15 -15 -15 -15 -15 -15 -15 -15 -15 -15 -15 -15 -15 -15 -15 -15 -15 -15 -15
-15 -15 -15 -16 -16 -16 -16 -16 -16 -16 -16 -16 -16 -16 -16 -16 -16 -16 -16 -16 -16 -16 -16 -15 -15 -15 -15 -15 -15 -15 -15 -15 -15 -15 -15 -15 -15 -15 -15 -15 -15 -15
-15 -15 -15 -15 -16 -16 -16 -16 -16 -16 -16 -16 -16 -16 -16 -16 -16 -16 -16 -16 -16 -16 -16 -16 -16 -15 -15 -16 -16 -16 -15 -15 -15 -15 -15 -15 -15 -15 -15 -15 -15 -15
-15 -15 -15 -15 -16 -16 -16 -16 -16 -16 -16 -16 -16 -16 -15 -15 -15 -16 -16 -16 -16 -16 -16 -16 -16 -16 -16 -16 -16 -16 -16 -16 -16 -15 -15 -15 -16 -15 -15 -15 -16 -16
-15 -15 -15 -15 -16 -16 -16 -16 -16 -16 -16 -16 -16 -16 -15 -15 -16 -16 -16 -16 -16 -16 -16 -16 -16 -16 -16 -16 -16 -16 -16 -16 -16 -16 -16 -16 -16 -16 -16 -16 -16 -16
-15 -15 -15 -15 -15 -16 -16 -16 -16 -16 -16 -16 -16 -16 -16 -16 -16 -16 -16 -16 -16 -16 -16 -16 -16 -16 -16 -16 -16 -16 -16 -16 -16 -16 -16 -16 -16 -16 -16 -16 -16 -16
-15 -15 -15 -15 -15 -15 -16 -16 -16 -16 -16 -16 -16 -16 -16 -16 -16 -16 -16 -16 -16 -16 -16 -16 -16 -16 -16 -16 -16 -16 -16 -17 -17 -17 -17 -17 -17 -17 -17 -17 -17 -17
-15 -15 -15 -15 -15 -15 -16 -16 -16 -16 -16 -16 -16 -16 -16 -16 -16 -16 -16 -16 -16 -16 -16 -16 -16 -16 -16 -16 -16 -16 -16 -17 -17 -17 -17 -17 -17 -17 -17 -17 -17 -17
-15 -15 -15 -15 -15 -16 -16 -16 -16 -16 -16 -16 -16 -16 -16 -16 -16 -16 -16 -16 -16 -16 -16 -16 -16 -16 -16 -16 -16 -16 -16 -16 -16 -16 -17 -17 -17 -17 -17 -17 -17 -18
-15 -15 -15 -15 -16 -16 -16 -16 -16 -16 -16 -16 -16 -16 -16 -16 -16 -16 -16 -16 -16 -16 -16 -16 -16 -16 -16 -16 -16 -16 -17 -17 -17 -17 -17 -17 -17 -17 -17 -17 -17 -17
-15 -15 -16 -16 -16 -16 -16 -16 -16 -16 -16 -16 -16 -16 -16 -16 -16 -17 -17 -17 -17 -16 -16 -16 -16 -17 -17 -17 -17 -17 -17 -17 -17 -17 -17 -17 -17 -17 -17 -17 -17 -17
Height
5769 5769 5770 5771 5772 5773 5774 5774 5775 5775 5776 5776 5777 5777 5778 5778 5779 5780 5780 5781 5782 5783 5783 5784 5784 5785 5786 5787 5788 5789 5789 5790 5790 5790 5791 5791 5792 5792 5791 5791 5792 5793
5767 5767 5769 5770 5771 5772 5772 5773 5773 5774 5774 5775 5775 5776 5776 5777 5778 5778 5779 5779 5780 5781 5782 5782 5783 5783 5784 5785 5786 5787 5787 5788 5788 5789 5790 5790 5791 5792 5791 5791 5791 5792
5765 5766 5768 5769 5770 5770 5771 5771 5771 5772 5772 5773 5774 5774 5775 5775 5776 5777 5777 5778 5778 5780 5780 5781 5781 5782 5783 5784 5784 5785 5786 5786 5787 5787 5788 5789 5789 5790 5790 5790 5790 5791
5764 5765 5766 5767 5768 5768 5769 5769 5769 5770 5770 5771 5772 5772 5773 5774 5774 5775 5775 5776 5777 5778 5779 5780 5780 5781 5782 5782 5783 5784 5784 5785 5786 5786 5787 5787 5788 5788 5789 5789 5789 5790
5763 5763 5764 5765 5765 5766 5766 5767 5767 5768 5769 5770 5770 5771 5771 5772 5773 5773 5774 5774 5776 5777 5778 5778 5779 5779 5780 5781 5782 5782 5783 5783 5784 5785 5786 5786 5787 5788 5788 5788 5788 5789
5760 5761 5762 5762 5763 5764 5765 5765 5766 5767 5768 5769 5769 5769 5770 5770 5771 5771 5772 5773 5774 5775 5776 5777 5777 5778 5779 5780 5780 5781 5781 5782 5783 5784 5784 5785 5785 5786 5787 5787 5787 5788
5759 5759 5760 5761 5761 5762 5763 5764 5765 5766 5766 5767 5768 5768 5769 5769 5769 5770 5771 5772 5773 5774 5775 5776 5776 5777 5778 5778 5779 5780 5780 5781 5781 5782 5783 5783 5783 5785 5785 5785 5786 5786
5757 5758 5759 5759 5760 5761 5761 5762 5763 5764 5765 5766 5766 5767 5767 5768 5768 5769 5770 5770 5771 5773 5774 5775 5776 5776 5777 5777 5778 5778 5778 5779 5780 5781 5781 5782 5782 5783 5784 5784 5784 5785
5754 5755 5756 5757 5758 5759 5759 5760 5761 5762 5764 5764 5765 5766 5766 5767 5767 5768 5768 5769 5770 5772 5773 5774 5775 5775 5776 5776 5777 5777 5777 5778 5778 5779 5780 5780 5781 5781 5782 5783 5783 5784
5751 5753 5754 5755 5757 5757 5758 5758 5759 5760 5762 5763 5763 5764 5765 5765 5766 5767 5767 5768 5770 5771 5771 5772 5773 5774 5774 5775 5776 5776 5776 5776 5777 5778 5778 5779 5780 5780 5781 5782 5782 5783
5748 5750 5752 5753 5755 5755 5756 5756 5757 5758 5760 5761 5761 5762 5763 5764 5764 5765 5766 5767 5768 5769 5770 5770 5771 5771 5772 5773 5774 5775 5775 5775 5776 5776 5777 5778 5778 5779 5779 5780 5781 5782
5746 5748 5750 5751 5752 5753 5754 5754 5755 5756 5757 5758 5759 5760 5761 5761 5762 5763 5764 5765 5766 5767 5768 5768 5769 5769 5770 5771 5772 5773 5773 5774 5774 5775 5776 5776 5777 5777 5778 5778 5779 5780
5743 5745 5747 5749 5750 5750 5751 5752 5752 5753 5754 5755 5756 5757 5758 5759 5760 5760 5761 5762 5764 5764 5765 5766 5766 5767 5768 5768 5769 5770 5771 5772 5772 5773 5774 5774 5775 5775 5776 5776 5777 5777
5740 5742 5744 5746 5747 5748 5749 5749 5750 5750 5751 5752 5753 5754 5755 5756 5757 5758 5759 5760 5761 5762 5763 5763 5764 5765 5765 5766 5767 5768 5769 5770 5770 5771 5771 5772 5773 5773 5774 5774 5775 5775
5737 5738 5740 5742 5743 5745 5746 5747 5747 5748 5749 5749 5750 5752 5753 5754 5755 5756 5756 5757 5758 5759 5760 5761 5762 5762 5763 5763 5764 5765 5766 5767 5768 5768 5769 5770 5770 5771 5772 5772 5773 5773
5733 5735 5737 5739 5740 5741 5743 5744 5744 5745 5746 5747 5748 5749 5750 5751 5752 5753 5754 5755 5756 5757 5758 5759 5759 5760 5760 5761 5762 5763 5764 5765 5765 5766 5767 5768 5768 5769 5769 5770 5770 5770
5729 5731 5733 5735 5737 5738 5740 5741 5742 5742 5743 5744 5746 5746 5747 5748 5749 5750 5752 5753 5754 5754 5755 5756 5757 5758 5758 5759 5759 5760 5761 5762 5763 5764 5764 5765 5765 5766 5766 5767 5767 5768
5726 5728 5729 5731 5733 5735 5736 5737 5739 5740 5741 5742 5743 5743 5744 5745 5746 5747 5749 5750 5751 5751 5752 5754 5754 5755 5756 5757 5757 5758 5759 5759 5760 5761 5762 5762 5763 5763 5763 5764 5764 5765
5723 5724 5726 5728 5730 5731 5732 5734 5735 5737 5738 5738 5739 5740 5740 5741 5742 5744 5745 5747 5748 5749 5749 5751 5751 5752 5753 5754 5755 5756 5756 5757 5758 5758 5759 5759 5760 5760 5761 5761 5762 5762
5719 5721 5722 5724 5726 5727 5729 5730 5732 5733 5734 5735 5736 5737 5736 5737 5738 5740 5742 5743 5744 5745 5746 5747 5748 5749 5750 5751 5752 5752 5753 5754 5755 5755 5756 5757 5757 5757 5757 5758 5758 5759
5715 5717 5718 5720 5722 5723 5725 5727 5729 5730 5731 5731 5732 5733 5733 5733 5735 5737 5739 5740 5741 5742 5744 5744 5745 5746 5746 5747 5748 5749 5749 5750 5751 5752 5752 5753 5753 5754 5754 5754 5754 5754
5712 5714 5714 5715 5717 5720 5722 5724 5725 5726 5727 5728 5729 5730 5730 5731 5733 5734 5736 5737 5738 5739 5740 5741 5742 5742 5743 5743 5744 5745 5745 5746 5747 5747 5748 5748 5749 5749 5750 5750 5750 5750
5709 5710 5710 5711 5714 5716 5718 5720 5721 5723 5724 5725 5725 5726 5728 5729 5730 5731 5732 5733 5735 5736 5737 5738 5738 5739 5739 5740 5740 5741 5741 5742 5742 5743 5743 5744 5744 5744 5745 5745 5745 5745
5704 5705 5707 5709 5710 5712 5714 5715 5716 5718 5720 5721 5722 5723 5724 5726 5727 5728 5729 5730 5731 5732 5733 5734 5735 5735 5736 5736 5737 5737 5738 5738 5738 5738 5739 5739 5739 5739 5739 5740 5741 5741
5701 5702 5704 5706 5707 5708 5709 5711 5712 5714 5716 5718 5719 5720 5721 5722 5723 5724 5725 5726 5727 5728 5729 5730 5731 5731 5732 5732 5733 5733 5734 5734 5734 5734 5735 5734 5734 5734 5734 5735 5736 5736
5697 5699 5701 5703 5704 5705 5705 5707 5709 5711 5712 5714 5715 5716 5717 5718 5720 5721 5722 5723 5724 5725 5725 5726 5727 5727 5728 5728 5728 5729 5729 5730 5730 5730 5730 5730 5730 5729 5729 5729 5730 5731
Wind_Speed
17 18 19 20 20 19 18 18 19 19 18 18 17 16 16 16 16 17 17 18 18 17 16 15 14 14 13 13 13 14 14 15 16 16 15 15 15 16 16 13 12 12
19 19 19 19 19 19 19 19 19 18 17 17 16 16 16 16 16 17 18 18 17 16 14 13 13 13 12 13 13 13 14 14 15 15 15 15 15 15 16 15 13 12
20 19 19 18 19 19 19 19 19 18 17 16 15 15 16 16 17 17 18 17 16 14 13 13 13 13 13 13 14 14 13 13 14 14 14 14 14 14 14 15 14 13
19 19 19 19 19 19 19 19 19 18 17 16 15 16 16 17 17 17 16 15 14 13 13 13 13 13 13 14 14 14 13 13 13 14 13 13 12 12 12 13 14 12
20 19 20 20 20 20 20 20 18 17 15 14 15 15 16 17 17 16 15 14 13 12 13 13 14 14 14 14 14 14 14 14 14 14 14 13 12 12 12 14 14 14
20 20 20 20 19 19 19 19 18 16 15 13 13 14 15 15 15 15 14 14 13 12 13 14 14 15 15 15 15 14 15 15 15 15 15 15 14 13 14 15 15 14
20 20 21 20 19 19 19 19 18 17 17 15 14 14 14 14 14 15 15 14 13 13 13 13 13 13 13 13 14 15 16 16 16 15 15 15 15 13 13 13 13 12
21 21 22 21 20 20 20 20 20 20 19 17 15 14 13 14 15 16 16 15 14 13 13 13 12 11 11 12 13 14 15 15 15 15 15 15 14 12 11 11 11 10
23 22 23 23 22 21 21 22 23 22 21 19 16 14 12 13 15 16 16 16 15 15 15 14 13 13 13 13 14 15 15 15 15 15 15 14 13 12 11 10 10 10
24 24 24 24 23 22 23 25 25 24 23 21 18 16 14 13 14 15 15 16 17 17 17 16 16 16 16 16 16 16 17 17 17 16 16 15 14 13 13 12 12 12
25 25 25 25 24 24 25 26 27 26 25 23 21 19 18 17 16 15 16 17 17 18 18 18 18 19 19 19 18 18 18 18 18 17 17 16 16 15 15 14 14 14
26 25 25 24 25 25 25 25 27 27 27 25 24 22 21 20 19 18 17 17 18 18 18 19 19 20 20 20 20 20 20 20 19 18 18 18 17 17 17 16 15 15
27 26 25 24 25 25 23 24 26 27 27 26 25 24 23 22 21 20 19 19 19 18 18 19 19 20 20 20 21 21 21 21 21 20 20 19 19 19 18 17 16 16
28 27 25 25 26 24 23 23 24 26 27 27 26 25 23 23 22 22 21 20 20 19 19 19 19 20 20 21 21 22 22 22 22 22 22 21 21 21 20 19 18 18
31 29 27 27 26 26 25 24 24 25 27 27 26 24 23 23 23 23 23 22 21 20 20 20 20 20 21 21 21 22 23 23 23 23 23 23 22 22 22 21 21 20
33 30 28 27 28 28 27 26 25 26 27 27 26 24 23 24 24 24 24 23 22 21 21 21 21 20 21 21 22 23 23 24 24 24 24 24 24 24 24 23 23 22
33 30 28 29 30 29 28 28 27 27 27 26 25 24 24 25 26 26 25 23 23 23 22 22 22 21 21 21 22 23 24 24 25 25 25 25 26 26 26 26 25 24
32 30 29 30 31 30 28 28 29 28 28 28 27 27 27 28 28 28 27 26 24 24 24 23 23 22 21 21 22 23 25 26 26 27 27 28 28 28 28 28 27 27
32 31 31 31 31 30 30 29 28 28 30 31 30 28 28 30 30 29 28 28 26 25 24 24 23 23 22 21 22 23 25 26 27 28 29 29 29 29 29 29 28 28
32 30 31 31 29 29 30 30 29 28 30 31 30 28 26 29 31 29 28 28 27 25 24 24 24 23 22 21 21 22 24 25 27 28 29 29 30 30 30 30 29 29
32 31 31 32 30 28 27 26 26 27 28 28 28 26 23 24 27 27 26 27 27 25 24 24 23 22 22 21 21 22 23 24 26 27 28 29 30 30 30 30 30 30
33 33 34 34 33 30 28 27 27 26 24 24 24 24 23 23 25 25 26 26 26 25 24 23 23 22 22 22 22 23 23 24 26 27 27 28 29 30 31 31 31 32
36 38 38 37 35 32 31 33 31 28 24 23 23 24 23 24 25 26 26 27 27 26 25 24 24 23 23 23 24 24 25 25 26 27 27 28 29 30 31 32 33 34
39 39 38 36 35 35 36 34 31 29 26 24 24 24 24 25 25 26 27 27 28 28 27 27 26 25 25 25 26 27 27 28 29 29 29 29 30 31 32 33 33 35
40 39 35 33 34 35 35 33 31 28 25 24 23 24 25 26 26 27 27 28 29 30 29 28 28 27 27 27 28 29 30 30 31 31 31 31 32 32 33 34 34 35
37 37 35 32 32 33 33 33 31 27 25 23 23 24 26 27 28 28 29 29 30 30 30 30 30 29 28 29 31 31 32 31 32 33 33 33 34 34 34 36 37 37
Wind_Direction
246 246 246 247 247 246 243 242 242 243 244 245 246 247 249 251 251 251 252 255 260 262 262 258 256 255 254 251 249 247 247 248 248 248 247 244 240 243 251 254 250 253
250 249 250 251 251 248 244 242 242 243 245 246 248 249 250 252 253 255 257 259 260 258 255 252 251 251 251 249 247 245 245 245 247 247 246 245 243 243 248 251 253 260
250 251 252 252 249 246 242 241 242 243 245 246 249 251 251 251 252 253 255 255 254 250 248 249 248 248 248 246 244 243 243 244 244 245 244 244 243 242 246 250 255 261
247 249 251 249 245 241 239 239 241 242 246 248 248 248 248 247 247 248 249 248 246 243 243 246 247 247 246 245 243 241 242 242 241 241 242 242 242 242 246 253 259 260
243 244 246 243 238 237 237 239 241 243 246 246 245 244 243 242 242 242 239 237 236 237 240 243 245 247 246 244 243 241 241 241 239 239 243 244 243 244 252 260 263 260
243 243 244 239 236 236 239 240 240 240 240 237 236 237 236 235 235 233 232 230 232 234 238 241 243 243 242 242 241 240 240 241 241 242 247 251 248 249 256 259 257 257
246 246 242 238 237 239 241 240 237 236 236 234 232 233 232 229 228 230 231 232 234 235 235 236 237 235 234 235 237 238 238 239 240 241 245 250 250 250 253 252 253 259
245 245 240 237 239 241 241 239 237 235 235 234 235 236 233 228 226 228 230 230 231 229 227 225 225 227 228 230 233 236 238 239 241 240 240 243 245 245 245 249 256 264
242 242 239 238 241 243 241 239 237 236 235 235 237 238 234 226 224 224 223 223 222 220 218 219 224 231 235 236 236 236 236 237 238 237 236 236 235 235 237 243 252 257
239 240 240 242 244 245 243 241 239 237 236 236 237 237 231 225 223 221 218 218 219 220 221 224 231 238 242 243 242 238 234 233 233 233 233 232 232 233 235 238 246 252
237 240 243 244 246 248 247 245 242 239 238 238 238 236 231 226 225 224 222 220 221 224 229 233 237 241 243 243 242 239 236 233 233 232 231 233 235 236 237 240 246 251
237 240 243 245 247 249 249 247 244 240 238 238 238 237 232 228 225 226 227 226 227 229 234 238 240 241 242 241 239 238 237 236 235 234 234 235 236 238 241 245 251 254
239 240 243 244 246 248 248 246 242 238 237 237 238 237 234 231 230 229 231 232 233 234 236 239 241 241 241 241 239 238 237 237 237 236 237 238 238 239 242 248 254 258
240 238 239 241 243 245 244 242 238 235 235 236 237 236 235 233 233 232 233 235 237 238 239 240 241 241 240 239 237 236 235 236 237 238 239 240 241 241 244 249 254 257
238 236 235 236 238 239 238 238 236 234 233 234 236 237 236 235 235 233 232 233 236 238 239 239 241 242 243 242 239 236 235 234 236 238 239 240 241 242 245 249 252 253
238 234 233 232 234 236 236 235 234 232 232 234 235 237 238 238 238 235 233 232 233 236 238 239 240 243 245 246 244 241 239 237 237 239 240 241 241 243 245 248 250 251
239 233 230 230 230 231 233 233 232 231 232 233 234 237 239 239 239 238 237 236 235 234 236 237 238 241 244 245 245 244 243 242 241 241 241 242 243 245 247 248 250 251
239 231 228 229 228 228 230 232 232 232 234 235 237 240 243 243 241 240 239 237 236 234 235 235 236 239 242 242 243 243 243 244 244 244 244 244 246 247 249 251 253 254
243 233 229 229 229 229 229 230 231 234 237 241 242 245 249 246 242 240 238 234 233 234 235 235 235 236 238 239 240 242 244 245 247 248 248 249 250 252 254 255 257 258
246 239 232 230 232 232 231 232 235 237 241 245 244 246 250 244 236 235 235 231 231 234 236 236 235 234 235 236 238 241 243 246 249 251 252 254 255 256 257 258 259 260
246 246 239 235 234 233 229 230 235 239 244 246 242 242 245 237 229 232 235 232 231 234 237 237 235 234 235 237 238 241 243 246 248 251 253 255 256 257 259 260 261 261
241 244 241 237 235 231 231 239 241 240 241 240 235 235 237 233 231 234 236 233 232 234 238 240 240 240 241 242 243 244 244 246 248 250 252 255 258 259 261 261 262 261
233 235 237 239 240 239 244 251 245 233 231 233 232 234 235 235 235 235 233 231 231 235 240 244 245 246 247 248 248 249 248 248 249 251 253 255 257 258 260 261 262 262
229 231 235 240 243 244 247 245 232 222 226 232 233 234 235 235 235 234 232 230 232 237 243 246 248 249 250 251 252 253 253 253 253 253 253 254 256 258 259 261 262 263
234 236 238 239 238 239 237 229 219 219 229 235 235 235 234 233 232 231 231 232 236 242 246 248 250 251 252 253 254 255 255 256 257 258 257 258 259 260 263 265 265 264
234 235 233 230 229 229 226 219 218 226 235 238 236 234 232 232 232 233 234 236 240 243 246 248 249 252 255 257 256 255 256 257 259 262 262 263 263 263 265 266 267 267